This demonstration page uses our WeatherBlox Daily Observations layout. Learn more.

Left ArrowRight Arrow

Hourly Observations for May 18, 2022

Temp ( °F °C ) Dew Point ( °F °C ) Humidity (%) Winds ( mph kmh ) Pressure ( in mb ) Visibility ( mi km ) Precip ( " mm )
12:15 am 00:15 undefined 63 17 47 8.5 58 58 ENE 5 7 30.00 1016 10 16 0.00 0.00
12:35 am 00:35 undefined 61 16.3 47 8.3 59 59 E 5 7 29.99 1016 10 16 0.00 0.00
12:55 am 00:55 undefined 61 16 47 8.3 60 60 E 3 6 29.99 1016 10 16 0.00 0.00
1:15 am 01:15 undefined 60 15.7 47 8.2 61 61 Calm 30.00 1016 10 16 0.00 0.00
1:35 am 01:35 undefined 60 15.8 47 8.4 62 62 E 6 9 29.98 1015 10 16 0.00 0.00
1:55 am 01:55 undefined 60 15.8 47 8.5 62 62 Calm 29.98 1015 10 16 0.00 0.00
2:15 am 02:15 undefined 60 15.7 46 8 60 60 E 7 11 29.98 1015 10 16 0.00 0.00
2:35 am 02:35 undefined 60 15.5 47 8.2 62 62 Calm 29.98 1015 10 16 0.00 0.00
2:55 am 02:55 undefined 59 15.2 47 8.3 64 64 Calm 29.98 1015 10 16 0.00 0.00
3:15 am 03:15 undefined 60 15.3 47 8.4 64 64 Calm 29.96 1015 10 16 0.00 0.00
3:35 am 03:35 undefined 60 15.5 47 8.5 63 63 Calm 29.96 1015 10 16 0.00 0.00
3:55 am 03:55 undefined 60 15.3 48 8.9 66 66 Calm 29.96 1015 10 16 0.00 0.00
4:15 am 04:15 Mostly Clear with Light Rain 59 15.2 48 9.1 67 67 Calm 29.96 1015 10 16 0.00 0.00
4:35 am 04:35 Mostly Clear with Light Rain 58 14.7 50 9.9 73 73 Calm 29.96 1015 10 16 0.00 0.00
4:55 am 04:55 Mostly Clear with Light Rain 58 14.2 51 10.5 79 79 Calm 29.97 1015 10 16 0.00 0.00
5:15 am 05:15 Mostly Clear with Drizzle 57 14 53 11.4 84 84 Calm 29.97 1015 10 16 0.00 0.00
5:35 am 05:35 Mostly Clear with Light Rain 57 14 51 10.7 81 81 Calm 29.96 1014 10 16 0.00 0.00
5:55 am 05:55 Mostly Clear with Light Rain 57 14.1 51 10.5 79 79 Calm 29.96 1014 10 16 0.00 0.00
6:15 am 06:15 Mostly Clear with Drizzle 58 14.3 51 10.5 78 78 Calm 29.96 1014 10 16 0.01 0.25
6:35 am 06:35 undefined 58 14.2 51 10.6 79 79 Calm 29.97 1015 10 16 0.01 0.25
6:55 am 06:55 Partly Cloudy with Drizzle 57 14 52 10.9 82 82 Calm 29.96 1014 10 16 0.01 0.25
7:15 am 07:15 undefined 58 14.3 52 10.9 80 80 Calm 29.94 1014 10 16 0.00 0.00
7:35 am 07:35 undefined 58 14.6 51 10.8 78 78 Calm 29.92 1013 10 16 0.00 0.00
7:55 am 07:55 Partly Cloudy with Light Rain 58 14.5 51 10.7 78 78 Calm 29.93 1013 10 16 0.00 0.00
8:15 am 08:15 undefined 58 14.7 52 11.2 80 80 SE 7 11 29.92 1013 10 16 0.00 0.00
8:35 am 08:35 undefined 60 15.3 53 11.4 78 78 SSE 6 9 29.93 1014 10 16 0.00 0.00
8:55 am 08:55 undefined 60 15.5 53 11.4 77 77 SE 6 9 29.92 1013 10 16 0.00 0.00
9:15 am 09:15 undefined 61 16 53 11.6 75 75 SE 6 9 29.92 1013 10 16 0.00 0.00
9:35 am 09:35 undefined 61 16.3 53 11.7 74 74 Calm 29.92 1013 10 16 0.00 0.00
9:55 am 09:55 undefined 62 16.5 54 12.1 75 75 SSE 6 9 29.92 1013 10 16 0.00 0.00
10:15 am 10:15 undefined 62 16.6 54 12.3 76 76 S 6 9 29.92 1013 10 16 0.00 0.00
10:35 am 10:35 undefined 63 17.1 54 12.4 74 74 S 6 9 29.91 1013 10 16 0.00 0.00
10:55 am 10:55 undefined 64 18 54 12.4 70 70 SSW 8 13 29.90 1013 10 16 0.00 0.00
11:15 am 11:15 undefined 65 18.6 56 13.1 71 71 S 8 13 29.89 1012 10 16 0.00 0.00
11:35 am 11:35 undefined 66 18.8 56 13.2 70 70 SSW 8 13 29.89 1012 10 16 0.00 0.00
11:55 am 11:55 undefined 66 19 55 12.9 68 68 SSW 10 17 29.88 1012 10 16 0.00 0.00
12:15 pm 12:15 Partly Cloudy with Drizzle 66 18.7 56 13.3 71 71 SSW 13 20 29.87 1012 10 16 0.00 0.00
12:35 pm 12:35 Partly Cloudy with Rain 64 17.9 57 13.9 78 78 S 13 20 29.85 1011 10 16 0.01 0.25
12:55 pm 12:55 Partly Cloudy with Light Rain 63 17.2 59 14.8 86 86 S 9 15 29.84 1010 10 16 0.02 0.51
1:15 pm 13:15 Partly Cloudy with Drizzle 64 17.5 60 15.3 87 87 SSW 3 6 29.83 1010 10 16 0.00 0.00
1:35 pm 13:35 Partly Cloudy with Rain 63 17.4 58 14.6 84 84 S 6 9 29.82 1010 10 16 0.00 0.00
1:55 pm 13:55 Partly Cloudy with Light Rain 63 17.3 59 14.8 85 85 S 3 6 29.82 1010 10 16 0.01 0.25
2:15 pm 14:15 Partly Cloudy with Rain 63 17.2 59 15 87 87 SSW 6 9 29.82 1010 10 16 0.00 0.00
2:35 pm 14:35 Partly Cloudy with Rain 63 17.1 59 15.1 88 88 SSW 5 7 29.82 1010 10 16 0.00 0.00
2:55 pm 14:55 Partly Cloudy with Rain 62 16.8 59 15.2 90 90 Calm 29.82 1010 10 16 0.01 0.25
3:15 pm 15:15 Partly Cloudy with Rain 62 16.5 59 15.2 92 92 Calm 29.82 1010 5 8 0.02 0.51
3:35 pm 15:35 Partly Cloudy with Rain 62 16.5 60 15.6 94 94 Calm 29.82 1010 5 8 0.05 1.27
3:55 pm 15:55 Partly Cloudy with Rain 62 16.5 60 15.3 93 93 SSW 7 11 29.81 1009 4 6 0.09 2.29
4:15 pm 16:15 Partly Cloudy with Rain 61 16.1 59 14.9 93 93 S 6 9 29.80 1009 7 11 0.03 0.76
4:35 pm 16:35 Partly Cloudy with Rain 61 16.1 58 14.7 91 91 SSE 3 6 29.78 1008 5 8 0.05 1.27
4:55 pm 16:55 Partly Cloudy with Rain 61 16 59 14.9 93 93 Calm 29.78 1008 3 5 0.10 2.54
5:15 pm 17:15 Partly Cloudy with Light Rain 61 16.2 59 15.2 94 94 Calm 29.77 1008 5 8 0.00 0.00
5:35 pm 17:35 undefined 61 16.3 60 15.3 94 94 Calm 29.77 1008 10 16 0.01 0.25
5:55 pm 17:55 undefined 61 16.3 59 15.2 93 93 SE 3 6 29.77 1008 10 16 0.01 0.25
6:15 pm 18:15 Partly Cloudy with Drizzle 62 16.5 60 15.5 94 94 SSE 10 17 29.75 1007 10 16 0.00 0.00
6:35 pm 18:35 undefined 63 17.1 61 15.9 93 93 SSE 8 13 29.75 1007 10 16 0.00 0.00
6:55 pm 18:55 undefined 63 17 60 15.7 92 92 S 6 9 29.76 1008 10 16 0.00 0.00
7:15 pm 19:15 undefined 62 16.7 60 15.5 93 93 Calm 29.77 1008 10 16 0.00 0.00
7:35 pm 19:35 undefined 62 16.7 60 15.7 94 94 Calm 29.77 1008 10 16 0.00 0.00
7:55 pm 19:55 undefined 62 16.6 60 15.7 94 94 Calm 29.76 1008 10 16 0.00 0.00
8:15 pm 20:15 undefined 62 16.7 60 15.7 94 94 Calm 29.76 1008 10 16 0.00 0.00
8:35 pm 20:35 undefined 62 16.6 60 15.8 95 95 Calm 29.77 1008 10 16 0.00 0.00
8:55 pm 20:55 undefined 62 16.6 60 15.8 95 95 Calm 29.77 1008 10 16 0.00 0.00
9:15 pm 21:15 undefined 62 16.6 60 15.8 95 95 SW 5 7 29.78 1008 10 16 0.00 0.00
9:35 pm 21:35 undefined 62 16.5 60 15.8 96 96 Calm 29.78 1008 10 16 0.00 0.00
9:55 pm 21:55 undefined 62 16.5 61 16 97 97 Calm 29.78 1008 10 16 0.00 0.00
10:15 pm 22:15 undefined 61 16.3 60 15.6 96 96 Calm 29.78 1008 10 16 0.00 0.00
10:35 pm 22:35 undefined 60 15.7 60 15.3 97 97 Calm 29.78 1008 7 11 0.00 0.00
10:55 pm 22:55 undefined 60 15.3 59 15 98 98 Calm 29.78 1009 7 11 0.00 0.00
11:15 pm 23:15 Mostly Clear with Mist and Fog 59 15 59 14.8 99 99 Calm 29.79 1009 4 6 0.00 0.00
11:35 pm 23:35 Mostly Clear with Mist and Fog 59 15.2 59 15.1 99 99 Calm 29.79 1009 3 4 0.00 0.00
11:55 pm 23:55 Mostly Clear with Mist and Fog 58 14.7 58 14.6 99 99 Calm 29.79 1009 1 1 0.00 0.00

Powered by AerisWeather